Year,Month,Day,Hour,Minute,Value (Times are PST for temperature in C)
2016,06,01,00,00,17.70
2016,06,01,00,01,17.70
2016,06,01,00,02,17.70
2016,06,01,00,03,17.70
2016,06,01,00,04,17.70
2016,06,01,00,05,17.70
2016,06,01,00,06,17.70
2016,06,01,00,07,17.70
2016,06,01,00,08,17.60
2016,06,01,00,09,17.60
2016,06,01,00,10,17.60
2016,06,01,00,11,17.60
2016,06,01,00,12,17.60
2016,06,01,00,13,17.60
2016,06,01,00,14,17.60
2016,06,01,00,15,17.60
2016,06,01,00,16,17.60
2016,06,01,00,17,17.60
2016,06,01,00,18,17.60
2016,06,01,00,19,17.50
2016,06,01,00,20,17.50
2016,06,01,00,21,17.50
2016,06,01,00,22,17.50
2016,06,01,00,23,17.40
2016,06,01,00,24,17.40
2016,06,01,00,25,17.40
2016,06,01,00,26,17.40
2016,06,01,00,27,17.40
2016,06,01,00,28,17.30
2016,06,01,00,29,17.30
2016,06,01,00,30,17.30
2016,06,01,00,31,17.30
2016,06,01,00,32,17.30
2016,06,01,00,33,17.30
2016,06,01,00,34,17.30
2016,06,01,00,35,17.30
2016,06,01,00,36,17.30
2016,06,01,00,37,17.30
2016,06,01,00,38,17.30
2016,06,01,00,39,17.30
2016,06,01,00,40,17.20
2016,06,01,00,41,17.20
2016,06,01,00,42,17.20
2016,06,01,00,43,17.20
2016,06,01,00,44,17.20
2016,06,01,00,45,17.20
2016,06,01,00,46,17.20
2016,06,01,00,47,17.20
2016,06,01,00,48,17.20
2016,06,01,00,49,17.20
2016,06,01,00,50,17.10
2016,06,01,00,51,17.10
2016,06,01,00,52,17.10
2016,06,01,00,53,17.10
2016,06,01,00,54,17.10
2016,06,01,00,55,17.10
2016,06,01,00,56,17.10
2016,06,01,00,57,17.10
2016,06,01,00,58,17.10
2016,06,01,00,59,17.10
2016,06,01,01,00,17.10
2016,06,01,01,01,17.00
2016,06,01,01,02,17.10
2016,06,01,01,03,17.10
2016,06,01,01,04,17.10
2016,06,01,01,05,17.10
2016,06,01,01,06,17.10
2016,06,01,01,07,17.10
2016,06,01,01,08,17.10
2016,06,01,01,09,17.10
2016,06,01,01,10,17.10
2016,06,01,01,11,17.10
2016,06,01,01,12,17.10
2016,06,01,01,13,17.10
2016,06,01,01,14,17.10
2016,06,01,01,15,17.10
2016,06,01,01,16,17.10
2016,06,01,01,17,17.10
2016,06,01,01,18,17.10
2016,06,01,01,19,17.10
2016,06,01,01,20,17.10
2016,06,01,01,21,17.10
2016,06,01,01,22,17.10
2016,06,01,01,23,17.10
2016,06,01,01,24,17.10
2016,06,01,01,25,17.10
2016,06,01,01,26,17.10
2016,06,01,01,27,17.10
2016,06,01,01,28,17.10
2016,06,01,01,29,17.10
2016,06,01,01,30,17.10
2016,06,01,01,31,17.20
2016,06,01,01,32,17.20
2016,06,01,01,33,17.20
2016,06,01,01,34,17.20
2016,06,01,01,35,17.20
2016,06,01,01,36,17.20
2016,06,01,01,37,17.20
2016,06,01,01,38,17.20
2016,06,01,01,39,17.20
2016,06,01,01,40,17.20
2016,06,01,01,41,17.20
2016,06,01,01,42,17.10
2016,06,01,01,43,17.10
2016,06,01,01,44,17.10
2016,06,01,01,45,17.10
2016,06,01,01,46,17.00
2016,06,01,01,47,17.00
2016,06,01,01,48,17.00
2016,06,01,01,49,17.00
2016,06,01,01,50,17.00
2016,06,01,01,51,16.90
2016,06,01,01,52,16.90
2016,06,01,01,53,16.90
2016,06,01,01,54,16.90
2016,06,01,01,55,16.90
2016,06,01,01,56,16.90
2016,06,01,01,57,16.90
2016,06,01,01,58,16.90
2016,06,01,01,59,16.90
2016,06,01,02,00,16.90
2016,06,01,02,01,16.90
2016,06,01,02,02,16.90
2016,06,01,02,03,16.90
2016,06,01,02,04,16.90
2016,06,01,02,05,16.90
2016,06,01,02,06,16.80
2016,06,01,02,07,16.80
2016,06,01,02,08,16.80
2016,06,01,02,09,16.80
2016,06,01,02,10,16.80
2016,06,01,02,11,16.90
2016,06,01,02,12,16.90
2016,06,01,02,13,16.90
2016,06,01,02,14,16.90
2016,06,01,02,15,16.90
2016,06,01,02,16,16.90
2016,06,01,02,17,16.90
2016,06,01,02,18,16.90
2016,06,01,02,19,16.90
2016,06,01,02,20,16.90
2016,06,01,02,21,16.90
2016,06,01,02,22,16.90
2016,06,01,02,23,17.00
2016,06,01,02,24,17.00
2016,06,01,02,25,17.00
2016,06,01,02,26,17.00
2016,06,01,02,27,17.00
2016,06,01,02,28,17.00
2016,06,01,02,29,17.00
2016,06,01,02,30,17.00
2016,06,01,02,31,17.00
2016,06,01,02,32,17.00
2016,06,01,02,33,17.00
2016,06,01,02,34,17.00
2016,06,01,02,35,17.00
2016,06,01,02,36,17.00
2016,06,01,02,37,17.00
2016,06,01,02,38,17.00
2016,06,01,02,39,17.00
2016,06,01,02,40,17.00
2016,06,01,02,41,17.00
2016,06,01,02,42,17.00
2016,06,01,02,43,17.00
2016,06,01,02,44,17.00
2016,06,01,02,45,17.00
2016,06,01,02,46,17.10
2016,06,01,02,47,17.00
2016,06,01,02,48,17.00
2016,06,01,02,49,17.00
2016,06,01,02,50,17.00
2016,06,01,02,51,17.00
2016,06,01,02,52,17.00
2016,06,01,02,53,17.00
2016,06,01,02,54,17.00
2016,06,01,02,55,17.00
2016,06,01,02,56,17.00
2016,06,01,02,57,16.90
2016,06,01,02,58,16.90
2016,06,01,02,59,16.90
2016,06,01,03,00,16.90
2016,06,01,03,01,16.90
2016,06,01,03,02,16.90
2016,06,01,03,03,16.90
2016,06,01,03,04,16.90
2016,06,01,03,05,16.90
2016,06,01,03,06,16.90
2016,06,01,03,07,16.90
2016,06,01,03,08,16.90
2016,06,01,03,09,16.90
2016,06,01,03,10,16.90
2016,06,01,03,11,16.90
2016,06,01,03,12,16.90
2016,06,01,03,13,17.00
2016,06,01,03,14,17.00
2016,06,01,03,15,17.10
2016,06,01,03,16,17.10
2016,06,01,03,17,17.10
2016,06,01,03,18,17.10
2016,06,01,03,19,17.10
2016,06,01,03,20,17.10
2016,06,01,03,21,17.10
2016,06,01,03,22,17.10
2016,06,01,03,23,17.10
2016,06,01,03,24,17.10
2016,06,01,03,25,17.10
2016,06,01,03,26,17.10
2016,06,01,03,27,17.10
2016,06,01,03,28,17.10
2016,06,01,03,29,17.10
2016,06,01,03,30,17.10
2016,06,01,03,31,17.10
2016,06,01,03,32,17.00
2016,06,01,03,33,17.00
2016,06,01,03,34,17.00
2016,06,01,03,35,17.00
2016,06,01,03,36,17.00
2016,06,01,03,37,17.00
2016,06,01,03,38,16.90
2016,06,01,03,39,16.90
2016,06,01,03,40,16.90
2016,06,01,03,41,16.90
2016,06,01,03,42,16.90
2016,06,01,03,43,16.90
2016,06,01,03,44,16.90
2016,06,01,03,45,16.80
2016,06,01,03,46,16.80
2016,06,01,03,47,16.80
2016,06,01,03,48,16.70
2016,06,01,03,49,16.70
2016,06,01,03,50,16.70
2016,06,01,03,51,16.60
2016,06,01,03,52,16.50
2016,06,01,03,53,16.50
2016,06,01,03,54,16.40
2016,06,01,03,55,16.40
2016,06,01,03,56,16.40
2016,06,01,03,57,16.30
2016,06,01,03,58,16.30
2016,06,01,03,59,16.30
2016,06,01,04,00,16.20
2016,06,01,04,01,16.20
2016,06,01,04,02,16.20
2016,06,01,04,03,16.10
2016,06,01,04,04,16.10
2016,06,01,04,05,16.00
2016,06,01,04,06,15.90
2016,06,01,04,07,15.90
2016,06,01,04,08,15.80
2016,06,01,04,09,15.80
2016,06,01,04,10,15.80
2016,06,01,04,11,15.80
2016,06,01,04,12,15.70
2016,06,01,04,13,15.70
2016,06,01,04,14,15.70
2016,06,01,04,15,15.70
2016,06,01,04,16,15.70
2016,06,01,04,17,15.70
2016,06,01,04,18,15.70
2016,06,01,04,19,15.60
2016,06,01,04,20,15.60
2016,06,01,04,21,15.50
2016,06,01,04,22,15.50
2016,06,01,04,23,15.40
2016,06,01,04,24,15.40
2016,06,01,04,25,15.30
2016,06,01,04,26,15.30
2016,06,01,04,27,15.30
2016,06,01,04,28,15.20
2016,06,01,04,29,15.20
2016,06,01,04,30,15.20
2016,06,01,04,31,15.20
2016,06,01,04,32,15.20
2016,06,01,04,33,15.10
2016,06,01,04,34,15.10
2016,06,01,04,35,15.10
2016,06,01,04,36,15.10
2016,06,01,04,37,15.10
2016,06,01,04,38,15.10
2016,06,01,04,39,15.10
2016,06,01,04,40,15.00
2016,06,01,04,41,15.00
2016,06,01,04,42,15.00
2016,06,01,04,43,15.00
2016,06,01,04,44,15.00
2016,06,01,04,45,15.00
2016,06,01,04,46,15.00
2016,06,01,04,47,15.10
2016,06,01,04,48,15.10
2016,06,01,04,49,15.10
2016,06,01,04,50,15.10
2016,06,01,04,51,15.10
2016,06,01,04,52,15.20
2016,06,01,04,53,15.20
2016,06,01,04,54,15.20
2016,06,01,04,55,15.20
2016,06,01,04,56,15.20
2016,06,01,04,57,15.20
2016,06,01,04,58,15.20
2016,06,01,04,59,15.20
2016,06,01,05,00,15.20
2016,06,01,05,01,15.30
2016,06,01,05,02,15.30
2016,06,01,05,03,15.30
2016,06,01,05,04,15.30
2016,06,01,05,05,15.30
2016,06,01,05,06,15.20
2016,06,01,05,07,15.20
2016,06,01,05,08,15.20
2016,06,01,05,09,15.20
2016,06,01,05,10,15.20
2016,06,01,05,11,15.20
2016,06,01,05,12,15.20
2016,06,01,05,13,15.20
2016,06,01,05,14,15.20
2016,06,01,05,15,15.20
2016,06,01,05,16,15.30
2016,06,01,05,17,15.30
2016,06,01,05,18,15.30
2016,06,01,05,19,15.30
2016,06,01,05,20,15.40
2016,06,01,05,21,15.40
2016,06,01,05,22,15.40
2016,06,01,05,23,15.50
2016,06,01,05,24,15.50
2016,06,01,05,25,15.50
2016,06,01,05,26,15.50
2016,06,01,05,27,15.50
2016,06,01,05,28,15.60
2016,06,01,05,29,15.50
2016,06,01,05,30,15.50
2016,06,01,05,31,15.50
2016,06,01,05,32,15.50
2016,06,01,05,33,15.50
2016,06,01,05,34,15.40
2016,06,01,05,35,15.40
2016,06,01,05,36,15.40
2016,06,01,05,37,15.40
2016,06,01,05,38,15.40
2016,06,01,05,39,15.40
2016,06,01,05,40,15.30
2016,06,01,05,41,15.30
2016,06,01,05,42,15.30
2016,06,01,05,43,15.30
2016,06,01,05,44,15.30
2016,06,01,05,45,15.30
2016,06,01,05,46,15.30
2016,06,01,05,47,15.30
2016,06,01,05,48,15.30
2016,06,01,05,49,15.40
2016,06,01,05,50,15.30
2016,06,01,05,51,15.40
2016,06,01,05,52,15.40
2016,06,01,05,53,15.30
2016,06,01,05,54,15.40
2016,06,01,05,55,15.40
2016,06,01,05,56,15.40
2016,06,01,05,57,15.40
2016,06,01,05,58,15.40
2016,06,01,05,59,15.40
2016,06,01,06,00,15.40
2016,06,01,06,01,15.40
2016,06,01,06,02,15.30
2016,06,01,06,03,15.30
2016,06,01,06,04,15.30
2016,06,01,06,05,15.30
2016,06,01,06,06,15.30
2016,06,01,06,07,15.30
2016,06,01,06,08,15.30
2016,06,01,06,09,15.30
2016,06,01,06,10,15.30
2016,06,01,06,11,15.30
2016,06,01,06,12,15.40
2016,06,01,06,13,15.40
2016,06,01,06,14,15.40
2016,06,01,06,15,15.40
2016,06,01,06,16,15.40
2016,06,01,06,17,15.40
2016,06,01,06,18,15.40
2016,06,01,06,19,15.40
2016,06,01,06,20,15.40
2016,06,01,06,21,15.30
2016,06,01,06,22,15.30
2016,06,01,06,23,15.30
2016,06,01,06,24,15.20
2016,06,01,06,25,15.20
2016,06,01,06,26,15.10
2016,06,01,06,27,15.10
2016,06,01,06,28,15.00
2016,06,01,06,29,15.00
2016,06,01,06,30,14.90
2016,06,01,06,31,14.80
2016,06,01,06,32,14.80
2016,06,01,06,33,14.70
2016,06,01,06,34,14.70
2016,06,01,06,35,14.60
2016,06,01,06,36,14.60
2016,06,01,06,37,14.50
2016,06,01,06,38,14.40
2016,06,01,06,39,14.40
2016,06,01,06,40,14.30
2016,06,01,06,41,14.30
2016,06,01,06,42,14.30
2016,06,01,06,43,14.30
2016,06,01,06,44,14.30
2016,06,01,06,45,14.30
2016,06,01,06,46,14.40
2016,06,01,06,47,14.40
2016,06,01,06,48,14.40
2016,06,01,06,49,14.50
2016,06,01,06,50,14.60
2016,06,01,06,51,14.60
2016,06,01,06,52,14.60
2016,06,01,06,53,14.60
2016,06,01,06,54,14.60
2016,06,01,06,55,14.70
2016,06,01,06,56,14.70
2016,06,01,06,57,14.70
2016,06,01,06,58,14.60
2016,06,01,06,59,14.60
2016,06,01,07,00,14.60
2016,06,01,07,01,14.70
2016,06,01,07,02,14.70
2016,06,01,07,03,14.70
2016,06,01,07,04,14.70
2016,06,01,07,05,14.70
2016,06,01,07,06,14.80
2016,06,01,07,07,14.80
2016,06,01,07,08,14.80
2016,06,01,07,09,14.80
2016,06,01,07,10,14.90
2016,06,01,07,11,14.90
2016,06,01,07,12,15.00
2016,06,01,07,13,15.00
2016,06,01,07,14,15.10
2016,06,01,07,15,15.20
2016,06,01,07,16,15.30
2016,06,01,07,17,15.40
2016,06,01,07,18,15.50
2016,06,01,07,19,15.50
2016,06,01,07,20,15.60
2016,06,01,07,21,15.60
2016,06,01,07,22,15.70
2016,06,01,07,23,15.70
2016,06,01,07,24,15.70
2016,06,01,07,25,15.70
2016,06,01,07,26,15.60
2016,06,01,07,27,15.60
2016,06,01,07,28,15.60
2016,06,01,07,29,15.50
2016,06,01,07,30,15.50
2016,06,01,07,31,15.40
2016,06,01,07,32,15.30
2016,06,01,07,33,15.30
2016,06,01,07,34,15.20
2016,06,01,07,35,15.10
2016,06,01,07,36,15.10
2016,06,01,07,37,15.10
2016,06,01,07,38,15.00
2016,06,01,07,39,15.00
2016,06,01,07,40,14.90
2016,06,01,07,41,14.90
2016,06,01,07,42,14.90
2016,06,01,07,43,14.90
2016,06,01,07,44,14.90
2016,06,01,07,45,14.90
2016,06,01,07,46,14.90
2016,06,01,07,47,14.90
2016,06,01,07,48,14.90
2016,06,01,07,49,14.90
2016,06,01,07,50,14.90
2016,06,01,07,51,15.00
2016,06,01,07,52,15.00
2016,06,01,07,53,15.00
2016,06,01,07,54,15.00
2016,06,01,07,55,15.10
2016,06,01,07,56,15.10
2016,06,01,07,57,15.10
2016,06,01,07,58,15.10
2016,06,01,07,59,15.20
2016,06,01,08,00,15.20
2016,06,01,08,01,15.20
2016,06,01,08,02,15.30
2016,06,01,08,03,15.30
2016,06,01,08,04,15.40
2016,06,01,08,05,15.40
2016,06,01,08,06,15.50
2016,06,01,08,07,15.50
2016,06,01,08,08,15.50
2016,06,01,08,09,15.60
2016,06,01,08,10,15.60
2016,06,01,08,11,15.60
2016,06,01,08,12,15.60
2016,06,01,08,13,15.60
2016,06,01,08,14,15.60
2016,06,01,08,15,15.60
2016,06,01,08,16,15.60
2016,06,01,08,17,15.60
2016,06,01,08,18,15.60
2016,06,01,08,19,15.60
2016,06,01,08,20,15.60
2016,06,01,08,21,15.60
2016,06,01,08,22,15.60
2016,06,01,08,23,15.60
2016,06,01,08,24,15.60
2016,06,01,08,25,15.50
2016,06,01,08,26,15.50
2016,06,01,08,27,15.50
2016,06,01,08,28,15.50
2016,06,01,08,29,15.40
2016,06,01,08,30,15.50
2016,06,01,08,31,15.50
2016,06,01,08,32,15.50
2016,06,01,08,33,15.50
2016,06,01,08,34,15.60
2016,06,01,08,35,15.60
2016,06,01,08,36,15.70
2016,06,01,08,37,15.70
2016,06,01,08,38,15.80
2016,06,01,08,39,15.80
2016,06,01,08,40,15.80
2016,06,01,08,41,15.80
2016,06,01,08,42,15.80
2016,06,01,08,43,15.90
2016,06,01,08,44,15.90
2016,06,01,08,45,16.00
2016,06,01,08,46,16.00
2016,06,01,08,47,16.10
2016,06,01,08,48,16.10
2016,06,01,08,49,16.10
2016,06,01,08,50,16.10
2016,06,01,08,51,16.10
2016,06,01,08,52,16.20
2016,06,01,08,53,16.20
2016,06,01,08,54,16.20
2016,06,01,08,55,16.30
2016,06,01,08,56,16.30
2016,06,01,08,57,16.30
2016,06,01,08,58,16.40
2016,06,01,08,59,16.40
2016,06,01,09,00,16.40
2016,06,01,09,01,16.50
2016,06,01,09,02,16.50
2016,06,01,09,03,16.40
2016,06,01,09,04,16.40
2016,06,01,09,05,16.40
2016,06,01,09,06,16.30
2016,06,01,09,07,16.30
2016,06,01,09,08,16.30
2016,06,01,09,09,16.30
2016,06,01,09,10,16.30
2016,06,01,09,11,16.30
2016,06,01,09,12,16.40
2016,06,01,09,13,16.40
2016,06,01,09,14,16.40
2016,06,01,09,15,16.50
2016,06,01,09,16,16.50
2016,06,01,09,17,16.60
2016,06,01,09,18,16.60
2016,06,01,09,19,16.60
2016,06,01,09,20,16.60
2016,06,01,09,21,16.70
2016,06,01,09,22,16.70
2016,06,01,09,23,16.70
2016,06,01,09,24,16.80
2016,06,01,09,25,16.80
2016,06,01,09,26,16.80
2016,06,01,09,27,16.80
2016,06,01,09,28,16.70
2016,06,01,09,29,16.70
2016,06,01,09,30,16.80
2016,06,01,09,31,16.80
2016,06,01,09,32,16.80
2016,06,01,09,33,16.80
2016,06,01,09,34,16.80
2016,06,01,09,35,16.80
2016,06,01,09,36,16.80
2016,06,01,09,37,16.90
2016,06,01,09,38,16.90
2016,06,01,09,39,16.90
2016,06,01,09,40,16.90
2016,06,01,09,41,17.00
2016,06,01,09,42,17.10
2016,06,01,09,43,17.00
2016,06,01,09,44,17.00
2016,06,01,09,45,17.00
2016,06,01,09,46,17.00
2016,06,01,09,47,16.90
2016,06,01,09,48,16.90
2016,06,01,09,49,16.90
2016,06,01,09,50,16.90
2016,06,01,09,51,16.90
2016,06,01,09,52,17.00
2016,06,01,09,53,17.00
2016,06,01,09,54,17.10
2016,06,01,09,55,17.20
2016,06,01,09,56,17.20
2016,06,01,09,57,17.30
2016,06,01,09,58,17.30
2016,06,01,09,59,17.40
2016,06,01,10,00,17.40
2016,06,01,10,01,17.50
2016,06,01,10,02,17.50
2016,06,01,10,03,17.60
2016,06,01,10,04,17.70
2016,06,01,10,05,17.70
2016,06,01,10,06,17.80
2016,06,01,10,07,17.80
2016,06,01,10,08,17.80
2016,06,01,10,09,17.80
2016,06,01,10,10,17.80
2016,06,01,10,11,17.80
2016,06,01,10,12,17.80
2016,06,01,10,13,17.80
2016,06,01,10,14,17.70
2016,06,01,10,15,17.70
2016,06,01,10,16,17.70
2016,06,01,10,17,17.70
2016,06,01,10,18,17.80
2016,06,01,10,19,17.80
2016,06,01,10,20,17.80
2016,06,01,10,21,17.80
2016,06,01,10,22,17.80
2016,06,01,10,23,17.90
2016,06,01,10,24,17.90
2016,06,01,10,25,18.00
2016,06,01,10,26,18.10
2016,06,01,10,27,18.10
2016,06,01,10,28,18.20
2016,06,01,10,29,18.20
2016,06,01,10,30,18.30
2016,06,01,10,31,18.30
2016,06,01,10,32,18.40
2016,06,01,10,33,18.30
2016,06,01,10,34,18.20
2016,06,01,10,35,18.00
2016,06,01,10,36,17.80
2016,06,01,10,37,17.50
2016,06,01,10,38,17.40
2016,06,01,10,39,17.40
2016,06,01,10,40,17.40
2016,06,01,10,41,17.40
2016,06,01,10,42,17.50
2016,06,01,10,43,17.50
2016,06,01,10,44,17.60
2016,06,01,10,45,17.60
2016,06,01,10,46,17.70
2016,06,01,10,47,17.80
2016,06,01,10,48,17.80
2016,06,01,10,49,17.80
2016,06,01,10,50,17.80
2016,06,01,10,51,17.80
2016,06,01,10,52,17.80
2016,06,01,10,53,17.80
2016,06,01,10,54,17.80
2016,06,01,10,55,17.90
2016,06,01,10,56,17.90
2016,06,01,10,57,17.90
2016,06,01,10,58,17.90
2016,06,01,10,59,17.90
2016,06,01,11,00,17.90
2016,06,01,11,01,17.90
2016,06,01,11,02,17.80
2016,06,01,11,03,17.70
2016,06,01,11,04,17.60
2016,06,01,11,05,17.60
2016,06,01,11,06,17.40
2016,06,01,11,07,17.40
2016,06,01,11,08,17.30
2016,06,01,11,09,17.30
2016,06,01,11,10,17.30
2016,06,01,11,11,17.30
2016,06,01,11,12,17.30
2016,06,01,11,13,17.40
2016,06,01,11,14,17.40
2016,06,01,11,15,17.40
2016,06,01,11,16,17.50
2016,06,01,11,17,17.60
2016,06,01,11,18,17.60
2016,06,01,11,19,17.60
2016,06,01,11,20,17.50
2016,06,01,11,21,17.50
2016,06,01,11,22,17.40
2016,06,01,11,23,17.40
2016,06,01,11,24,17.40
2016,06,01,11,25,17.40
2016,06,01,11,26,17.30
2016,06,01,11,27,17.30
2016,06,01,11,28,17.20
2016,06,01,11,29,17.10
2016,06,01,11,30,17.10
2016,06,01,11,31,17.10
2016,06,01,11,32,17.10
2016,06,01,11,33,17.10
2016,06,01,11,34,17.10
2016,06,01,11,35,17.10
2016,06,01,11,36,17.30
2016,06,01,11,37,17.30
2016,06,01,11,38,17.40
2016,06,01,11,39,17.50
2016,06,01,11,40,17.50
2016,06,01,11,41,17.40
2016,06,01,11,42,17.40
2016,06,01,11,43,17.30
2016,06,01,11,44,17.30
2016,06,01,11,45,17.30
2016,06,01,11,46,17.30
2016,06,01,11,47,17.30
2016,06,01,11,48,17.30
2016,06,01,11,49,17.30
2016,06,01,11,50,17.30
2016,06,01,11,51,17.30
2016,06,01,11,52,17.30
2016,06,01,11,53,17.30
2016,06,01,11,54,17.40
2016,06,01,11,55,17.40
2016,06,01,11,56,17.40
2016,06,01,11,57,17.50
2016,06,01,11,58,17.50
2016,06,01,11,59,17.50
2016,06,01,12,00,17.60
2016,06,01,12,01,17.80
2016,06,01,12,02,17.80
2016,06,01,12,03,17.90
2016,06,01,12,04,17.90
2016,06,01,12,05,17.90
2016,06,01,12,06,17.90
2016,06,01,12,07,17.80
2016,06,01,12,08,17.80
2016,06,01,12,09,17.70
2016,06,01,12,10,17.60
2016,06,01,12,11,17.60
2016,06,01,12,12,17.60
2016,06,01,12,13,17.60
2016,06,01,12,14,17.60
2016,06,01,12,15,17.60
2016,06,01,12,16,17.60
2016,06,01,12,17,17.60
2016,06,01,12,18,17.50
2016,06,01,12,19,17.40
2016,06,01,12,20,17.40
2016,06,01,12,21,17.30
2016,06,01,12,22,17.10
2016,06,01,12,23,17.00
2016,06,01,12,24,16.90
2016,06,01,12,25,16.80
2016,06,01,12,26,16.80
2016,06,01,12,27,16.80
2016,06,01,12,28,16.80
2016,06,01,12,29,16.80
2016,06,01,12,30,16.80
2016,06,01,12,31,16.70
2016,06,01,12,32,16.70
2016,06,01,12,33,16.60
2016,06,01,12,34,16.50
2016,06,01,12,35,16.30
2016,06,01,12,36,16.20
2016,06,01,12,37,16.20
2016,06,01,12,38,16.20
2016,06,01,12,39,16.10
2016,06,01,12,40,16.20
2016,06,01,12,41,16.20
2016,06,01,12,42,16.20
2016,06,01,12,43,16.10
2016,06,01,12,44,16.10
2016,06,01,12,45,16.10
2016,06,01,12,46,16.10
2016,06,01,12,47,16.10
2016,06,01,12,48,16.20
2016,06,01,12,49,16.20
2016,06,01,12,50,16.30
2016,06,01,12,51,16.50
2016,06,01,12,52,16.60
2016,06,01,12,53,16.60
2016,06,01,12,54,16.60
2016,06,01,12,55,16.60
2016,06,01,12,56,16.60
2016,06,01,12,57,16.60
2016,06,01,12,58,16.60
2016,06,01,12,59,16.60
2016,06,01,13,00,16.50
2016,06,01,13,01,16.50
2016,06,01,13,02,16.30
2016,06,01,13,03,16.20
2016,06,01,13,04,16.10
2016,06,01,13,05,16.10
2016,06,01,13,06,16.10
2016,06,01,13,07,16.10
2016,06,01,13,08,16.20
2016,06,01,13,09,16.30
2016,06,01,13,10,16.50
2016,06,01,13,11,16.70
2016,06,01,13,12,16.90
2016,06,01,13,13,17.20
2016,06,01,13,14,17.40
2016,06,01,13,15,17.60
2016,06,01,13,16,17.70
2016,06,01,13,17,17.80
2016,06,01,13,18,17.90
2016,06,01,13,19,17.90
2016,06,01,13,20,17.90
2016,06,01,13,21,17.80
2016,06,01,13,22,17.60
2016,06,01,13,23,17.50
2016,06,01,13,24,17.10
2016,06,01,13,25,16.90
2016,06,01,13,26,16.70
2016,06,01,13,27,16.60
2016,06,01,13,28,16.40
2016,06,01,13,29,16.30
2016,06,01,13,30,16.30
2016,06,01,13,31,16.20
2016,06,01,13,32,16.30
2016,06,01,13,33,16.30
2016,06,01,13,34,16.40
2016,06,01,13,35,16.50
2016,06,01,13,36,16.60
2016,06,01,13,37,16.70
2016,06,01,13,38,16.70
2016,06,01,13,39,16.70
2016,06,01,13,40,16.60
2016,06,01,13,41,16.50
2016,06,01,13,42,16.40
2016,06,01,13,43,16.30
2016,06,01,13,44,16.20
2016,06,01,13,45,16.10
2016,06,01,13,46,16.00
2016,06,01,13,47,15.90
2016,06,01,13,48,15.90
2016,06,01,13,49,15.90
2016,06,01,13,50,15.90
2016,06,01,13,51,15.80
2016,06,01,13,52,15.80
2016,06,01,13,53,15.70
2016,06,01,13,54,15.70
2016,06,01,13,55,15.60
2016,06,01,13,56,15.50
2016,06,01,13,57,15.50
2016,06,01,13,58,15.40
2016,06,01,13,59,15.30
2016,06,01,14,00,15.10
2016,06,01,14,01,15.00
2016,06,01,14,02,14.90
2016,06,01,14,03,14.70
2016,06,01,14,04,14.60
2016,06,01,14,05,14.60
2016,06,01,14,06,14.50
2016,06,01,14,07,14.50
2016,06,01,14,08,14.60
2016,06,01,14,09,14.60
2016,06,01,14,10,14.60
2016,06,01,14,11,14.60
2016,06,01,14,12,14.50
2016,06,01,14,13,14.50
2016,06,01,14,14,14.50
2016,06,01,14,15,14.50
2016,06,01,14,16,14.50
2016,06,01,14,17,14.50
2016,06,01,14,18,14.50
2016,06,01,14,19,14.50
2016,06,01,14,20,14.60
2016,06,01,14,21,14.70
2016,06,01,14,22,14.70
2016,06,01,14,23,14.80
2016,06,01,14,24,14.80
2016,06,01,14,25,14.80
2016,06,01,14,26,14.80
2016,06,01,14,27,14.80
2016,06,01,14,28,14.80
2016,06,01,14,29,14.90
2016,06,01,14,30,14.90
2016,06,01,14,31,14.90
2016,06,01,14,32,15.00
2016,06,01,14,33,15.00
2016,06,01,14,34,15.00
2016,06,01,14,35,15.00
2016,06,01,14,36,15.10
2016,06,01,14,37,15.10
2016,06,01,14,38,15.10
2016,06,01,14,39,15.00
2016,06,01,14,40,14.90
2016,06,01,14,41,14.90
2016,06,01,14,42,14.80
2016,06,01,14,43,14.80
2016,06,01,14,44,14.70
2016,06,01,14,45,14.60
2016,06,01,14,46,14.50
2016,06,01,14,47,14.50
2016,06,01,14,48,14.50
2016,06,01,14,49,14.50
2016,06,01,14,50,14.60
2016,06,01,14,51,14.70
2016,06,01,14,52,14.70
2016,06,01,14,53,14.80
2016,06,01,14,54,14.90
2016,06,01,14,55,14.90
2016,06,01,14,56,14.90
2016,06,01,14,57,14.90
2016,06,01,14,58,15.00
2016,06,01,14,59,15.10
2016,06,01,15,00,15.10
2016,06,01,15,01,15.20
2016,06,01,15,02,15.30
2016,06,01,15,03,15.30
2016,06,01,15,04,15.40
2016,06,01,15,05,15.50
2016,06,01,15,06,15.60
2016,06,01,15,07,15.70
2016,06,01,15,08,15.80
2016,06,01,15,09,15.90
2016,06,01,15,10,16.00
2016,06,01,15,11,16.10
2016,06,01,15,12,16.20
2016,06,01,15,13,16.30
2016,06,01,15,14,16.50
2016,06,01,15,15,16.60
2016,06,01,15,16,16.70
2016,06,01,15,17,16.80
2016,06,01,15,18,17.00
2016,06,01,15,19,17.10
2016,06,01,15,20,17.20
2016,06,01,15,21,17.30
2016,06,01,15,22,17.40
2016,06,01,15,23,17.50
2016,06,01,15,24,17.60
2016,06,01,15,25,17.60
2016,06,01,15,26,17.70
2016,06,01,15,27,17.80
2016,06,01,15,28,17.90
2016,06,01,15,29,18.00
2016,06,01,15,30,18.10
2016,06,01,15,31,18.20
2016,06,01,15,32,18.20
2016,06,01,15,33,18.30
2016,06,01,15,34,18.40
2016,06,01,15,35,18.40
2016,06,01,15,36,18.40
2016,06,01,15,37,18.40
2016,06,01,15,38,18.40
2016,06,01,15,39,18.40
2016,06,01,15,40,18.40
2016,06,01,15,41,18.40
2016,06,01,15,42,18.50
2016,06,01,15,43,18.50
2016,06,01,15,44,18.50
2016,06,01,15,45,18.50
2016,06,01,15,46,18.50
2016,06,01,15,47,18.40
2016,06,01,15,48,18.40
2016,06,01,15,49,18.40
2016,06,01,15,50,18.40
2016,06,01,15,51,18.40
2016,06,01,15,52,18.30
2016,06,01,15,53,18.30
2016,06,01,15,54,18.30
2016,06,01,15,55,18.30
2016,06,01,15,56,18.30
2016,06,01,15,57,18.30
2016,06,01,15,58,18.30
2016,06,01,15,59,18.30
2016,06,01,16,00,18.30
2016,06,01,16,01,18.30
2016,06,01,16,02,18.30
2016,06,01,16,03,18.40
2016,06,01,16,04,18.40
2016,06,01,16,05,18.40
2016,06,01,16,06,18.40
2016,06,01,16,07,18.40
2016,06,01,16,08,18.40
2016,06,01,16,09,18.40
2016,06,01,16,10,18.40
2016,06,01,16,11,18.40
2016,06,01,16,12,18.40
2016,06,01,16,13,18.40
2016,06,01,16,14,18.40
2016,06,01,16,15,18.40
2016,06,01,16,16,18.40
2016,06,01,16,17,18.40
2016,06,01,16,18,18.40
2016,06,01,16,19,18.40
2016,06,01,16,20,18.40
2016,06,01,16,21,18.40
2016,06,01,16,22,18.40
2016,06,01,16,23,18.40
2016,06,01,16,24,18.40
2016,06,01,16,25,18.40
2016,06,01,16,26,18.40
2016,06,01,16,27,18.40
2016,06,01,16,28,18.40
2016,06,01,16,29,18.40
2016,06,01,16,30,18.40
2016,06,01,16,31,18.30
2016,06,01,16,32,18.30
2016,06,01,16,33,18.20
2016,06,01,16,34,18.20
2016,06,01,16,35,18.10
2016,06,01,16,36,18.10
2016,06,01,16,37,18.10
2016,06,01,16,38,18.10
2016,06,01,16,39,18.20
2016,06,01,16,40,18.20
2016,06,01,16,41,18.20
2016,06,01,16,42,18.30
2016,06,01,16,43,18.30
2016,06,01,16,44,18.30
2016,06,01,16,45,18.30
2016,06,01,16,46,18.30
2016,06,01,16,47,18.40
2016,06,01,16,48,18.40
2016,06,01,16,49,18.40
2016,06,01,16,50,18.50
2016,06,01,16,51,18.50
2016,06,01,16,52,18.50
2016,06,01,16,53,18.50
2016,06,01,16,54,18.50
2016,06,01,16,55,18.60
2016,06,01,16,56,18.60
2016,06,01,16,57,18.60
2016,06,01,16,58,18.70
2016,06,01,16,59,18.70
2016,06,01,17,00,18.80
2016,06,01,17,01,18.80
2016,06,01,17,02,18.80
2016,06,01,17,03,18.80
2016,06,01,17,04,18.80
2016,06,01,17,05,18.90
2016,06,01,17,06,18.90
2016,06,01,17,07,18.90
2016,06,01,17,08,18.90
2016,06,01,17,09,18.90
2016,06,01,17,10,18.90
2016,06,01,17,11,18.90
2016,06,01,17,12,19.00
2016,06,01,17,13,19.00
2016,06,01,17,14,19.00
2016,06,01,17,15,19.00
2016,06,01,17,16,19.00
2016,06,01,17,17,19.10
2016,06,01,17,18,19.10
2016,06,01,17,19,19.10